QPF
0.07 0.09 0.10 0.10 0.13 0.14 0.16 0.18 0.19 0.17 0.11 0.06 0.05 0.05 0.07 0.07 0.09 0.05 0.03 0.03 0.03 0.02 0.02 0.02 0.01 0.01 0.01 0.01 0.02 0.01 0.01 0.02 0.01 0.01 0.01 0.01 0.01 0.01
0.10 0.11 0.11 0.12 0.12 0.14 0.15 0.16 0.19 0.19 0.18 0.14 0.09 0.07 0.08 0.09 0.12 0.06 0.05 0.08 0.05 0.04 0.04 0.03 0.02 0.02 0.02 0.02 0.01 0.01 0.00 0.00 0.00 0.00 0.01 0.00 0.01 0.01
0.08 0.08 0.10 0.10 0.12 0.14 0.15 0.15 0.16 0.18 0.19 0.18 0.15 0.12 0.10 0.09 0.09 0.08 0.09 0.09 0.07 0.06 0.05 0.04 0.04 0.03 0.02 0.02 0.01 0.01 0.00 0.00 0.00 0.01 0.01 0.01 0.01 0.01
0.07 0.09 0.11 0.12 0.13 0.13 0.14 0.15 0.17 0.19 0.19 0.18 0.17 0.15 0.13 0.12 0.12 0.11 0.11 0.11 0.11 0.12 0.10 0.07 0.05 0.04 0.03 0.01 0.01 0.01 0.00 0.00 0.00 0.00 0.01 0.01 0.01 0.01
0.06 0.08 0.11 0.12 0.13 0.15 0.15 0.14 0.16 0.20 0.23 0.24 0.21 0.19 0.18 0.17 0.17 0.16 0.15 0.15 0.17 0.19 0.19 0.13 0.10 0.07 0.05 0.03 0.02 0.01 0.01 0.00 0.00 0.00 0.01 0.01 0.01 0.01
0.06 0.07 0.10 0.11 0.13 0.16 0.17 0.17 0.17 0.20 0.20 0.23 0.23 0.22 0.20 0.22 0.24 0.23 0.20 0.19 0.21 0.21 0.22 0.20 0.17 0.13 0.09 0.06 0.04 0.02 0.01 0.01 0.00 0.00 0.00 0.00 0.00 0.01
0.05 0.08 0.10 0.11 0.13 0.15 0.15 0.16 0.17 0.19 0.20 0.20 0.20 0.21 0.22 0.24 0.26 0.25 0.24 0.23 0.23 0.23 0.25 0.25 0.20 0.15 0.11 0.08 0.06 0.04 0.03 0.02 0.01 0.01 0.01 0.01 0.01 0.00
0.04 0.06 0.10 0.14 0.15 0.16 0.17 0.18 0.17 0.17 0.19 0.20 0.19 0.18 0.18 0.19 0.22 0.26 0.27 0.29 0.32 0.26 0.23 0.27 0.24 0.20 0.15 0.11 0.09 0.06 0.04 0.03 0.02 0.02 0.01 0.01 0.00 0.00
0.03 0.05 0.09 0.13 0.15 0.19 0.15 0.17 0.17 0.18 0.19 0.22 0.20 0.17 0.17 0.17 0.20 0.24 0.25 0.24 0.25 0.27 0.24 0.27 0.25 0.22 0.18 0.15 0.13 0.08 0.05 0.04 0.03 0.02 0.01 0.00 0.00 0.00
0.04 0.05 0.06 0.09 0.11 0.13 0.13 0.15 0.16 0.15 0.14 0.18 0.22 0.22 0.20 0.21 0.24 0.25 0.28 0.29 0.32 0.34 0.29 0.30 0.28 0.23 0.20 0.16 0.15 0.10 0.06 0.04 0.03 0.02 0.01 0.00 0.00 0.00
0.05 0.07 0.06 0.06 0.06 0.06 0.09 0.14 0.17 0.15 0.13 0.14 0.19 0.23 0.23 0.24 0.28 0.28 0.29 0.31 0.34 0.37 0.31 0.24 0.23 0.21 0.20 0.17 0.15 0.11 0.07 0.05 0.03 0.02 0.01 0.01 0.00 0.00
0.03 0.04 0.05 0.05 0.04 0.05 0.07 0.11 0.15 0.16 0.13 0.12 0.15 0.19 0.23 0.23 0.25 0.24 0.24 0.23 0.22 0.23 0.22 0.20 0.19 0.16 0.17 0.16 0.12 0.10 0.07 0.05 0.03 0.02 0.01 0.00 0.00 0.00
0.02 0.03 0.04 0.03 0.04 0.05 0.05 0.06 0.08 0.12 0.15 0.16 0.17 0.19 0.23 0.27 0.25 0.24 0.25 0.22 0.18 0.13 0.12 0.12 0.13 0.11 0.09 0.09 0.10 0.09 0.06 0.03 0.02 0.01 0.01 0.00 0.00 0.00
0.02 0.02 0.03 0.02 0.03 0.06 0.04 0.04 0.05 0.10 0.15 0.18 0.21 0.21 0.21 0.24 0.25 0.25 0.26 0.25 0.19 0.14 0.11 0.08 0.08 0.07 0.06 0.06 0.06 0.06 0.05 0.03 0.01 0.01 0.00 0.00 0.00 0.00
0.01 0.01 0.01 0.01 0.01 0.04 0.04 0.03 0.05 0.10 0.14 0.15 0.18 0.20 0.18 0.18 0.17 0.18 0.21 0.24 0.22 0.16 0.13 0.09 0.07 0.06 0.05 0.04 0.04 0.04 0.03 0.02 0.01 0.01 0.00 0.00 0.00 0.00
0.01 0.01 0.01 0.01 0.02 0.04 0.05 0.05 0.05 0.07 0.11 0.13 0.15 0.16 0.14 0.14 0.13 0.12 0.15 0.17 0.18 0.15 0.12 0.09 0.06 0.05 0.04 0.03 0.02 0.02 0.01 0.01 0.01 0.01 0.00 0.00 0.00 0.00
0.00 0.01 0.01 0.02 0.03 0.03 0.03 0.03 0.03 0.03 0.07 0.08 0.10 0.13 0.12 0.11 0.12 0.10 0.11 0.11 0.11 0.11 0.09 0.06 0.05 0.05 0.05 0.03 0.02 0.01 0.01 0.01 0.01 0.00 0.00 0.00 0.00 0.00
0.00 0.01 0.01 0.01 0.02 0.02 0.02 0.02 0.04 0.03 0.05 0.06 0.08 0.11 0.10 0.09 0.09 0.11 0.10 0.09 0.07 0.07 0.06 0.04 0.03 0.03 0.04 0.04 0.03 0.02 0.01 0.01 0.00 0.00 0.00 0.00 0.00 0.00
0.01 0.01 0.00 0.01 0.02 0.01 0.01 0.02 0.04 0.03 0.05 0.07 0.07 0.09 0.09 0.08 0.07 0.09 0.09 0.07 0.06 0.05 0.04 0.03 0.01 0.02 0.02 0.02 0.02 0.01 0.01 0.01 0.00 0.00 0.00 0.00 0.00 0.00
0.01 0.01 0.00 0.00 0.00 0.00 0.01 0.01 0.02 0.02 0.03 0.05 0.05 0.06 0.07 0.07 0.06 0.06 0.05 0.04 0.05 0.04 0.03 0.02 0.01 0.01 0.01 0.01 0.00 0.00 0.00 0.00 0.00 0.00 0.00 0.00 0.00 0.00
0.00 0.00 0.00 0.00 0.00 0.00 0.00 0.01 0.01 0.01 0.01 0.03 0.03 0.03 0.04 0.05 0.05 0.03 0.02 0.02 0.03 0.03 0.03 0.02 0.01 0.01 0.01 0.01 0.01 0.00 0.00 0.00 0.00 0.00 0.00 0.00 0.00 0.00
0.00 0.00 0.00 0.00 0.00 0.00 0.00 0.00 0.00 0.01 0.01 0.01 0.01 0.01 0.02 0.02 0.03 0.02 0.01 0.01 0.01 0.01 0.02 0.02 0.01 0.01 0.01 0.01 0.01 0.01 0.00 0.00 0.00 0.00 0.00 0.00 0.00 0.00
0.00 0.00 0.00 0.00 0.00 0.00 0.00 0.00 0.00 0.00 0.01 0.01 0.00 0.00 0.00 0.01 0.01 0.01 0.01 0.01 0.01 0.00 0.00 0.01 0.01 0.01 0.01 0.00 0.00 0.00 0.00 0.00 0.00 0.00 0.00 0.00 0.00 0.00
MSLP
1010.48 1010.26 1010.14 1010.12 1010.19 1010.34 1010.55 1010.78 1011.01 1011.22 1011.38 1011.50 1011.58 1011.64 1011.70 1011.80 1011.96 1012.20 1012.53 1012.96 1013.47 1014.03 1014.60 1015.17 1015.70 1016.18 1016.61 1016.99 1017.34 1017.68 1018.03 1018.39 1018.76 1019.14 1019.50 1019.84 1020.14 1020.38
1010.01 1009.70 1009.47 1009.35 1009.34 1009.45 1009.63 1009.89 1010.17 1010.47 1010.74 1010.98 1011.17 1011.33 1011.46 1011.60 1011.77 1012.00 1012.30 1012.69 1013.15 1013.67 1014.23 1014.79 1015.33 1015.84 1016.30 1016.72 1017.11 1017.49 1017.86 1018.24 1018.63 1019.02 1019.39 1019.75 1020.06 1020.34
1009.50 1009.10 1008.79 1008.58 1008.49 1008.53 1008.69 1008.95 1009.28 1009.65 1010.03 1010.39 1010.71 1010.98 1011.22 1011.42 1011.64 1011.88 1012.17 1012.52 1012.95 1013.43 1013.96 1014.51 1015.05 1015.57 1016.05 1016.50 1016.92 1017.32 1017.72 1018.11 1018.51 1018.91 1019.30 1019.67 1020.02 1020.33
1009.02 1008.56 1008.16 1007.86 1007.69 1007.67 1007.78 1008.03 1008.39 1008.83 1009.30 1009.77 1010.20 1010.59 1010.93 1011.22 1011.49 1011.77 1012.06 1012.41 1012.81 1013.27 1013.77 1014.30 1014.83 1015.36 1015.86 1016.33 1016.77 1017.20 1017.61 1018.02 1018.43 1018.84 1019.25 1019.64 1020.01 1020.36
1008.65 1008.13 1007.66 1007.29 1007.04 1006.94 1007.00 1007.22 1007.58 1008.04 1008.56 1009.11 1009.63 1010.12 1010.55 1010.93 1011.26 1011.58 1011.90 1012.26 1012.66 1013.11 1013.60 1014.12 1014.66 1015.19 1015.71 1016.20 1016.67 1017.12 1017.55 1017.97 1018.40 1018.82 1019.24 1019.66 1020.06 1020.43
1008.43 1007.87 1007.35 1006.91 1006.59 1006.42 1006.41 1006.57 1006.89 1007.33 1007.86 1008.44 1009.02 1009.56 1010.06 1010.50 1010.89 1011.26 1011.62 1012.00 1012.41 1012.88 1013.38 1013.92 1014.48 1015.04 1015.58 1016.10 1016.60 1017.08 1017.53 1017.98 1018.42 1018.86 1019.30 1019.73 1020.15 1020.55
1008.40 1007.82 1007.26 1006.77 1006.39 1006.14 1006.05 1006.14 1006.38 1006.77 1007.26 1007.80 1008.37 1008.93 1009.45 1009.92 1010.35 1010.76 1011.16 1011.58 1012.03 1012.53 1013.08 1013.65 1014.25 1014.86 1015.45 1016.02 1016.55 1017.06 1017.55 1018.02 1018.48 1018.94 1019.39 1019.83 1020.27 1020.70
1008.52 1007.94 1007.37 1006.85 1006.42 1006.11 1005.94 1005.94 1006.09 1006.38 1006.78 1007.25 1007.76 1008.28 1008.77 1009.24 1009.68 1010.11 1010.55 1011.01 1011.52 1012.07 1012.67 1013.31 1013.98 1014.64 1015.30 1015.92 1016.52 1017.07 1017.60 1018.10 1018.58 1019.05 1019.51 1019.96 1020.41 1020.84
1008.73 1008.18 1007.62 1007.10 1006.64 1006.29 1006.06 1005.97 1006.02 1006.19 1006.48 1006.84 1007.25 1007.68 1008.11 1008.54 1008.96 1009.40 1009.86 1010.36 1010.92 1011.54 1012.21 1012.92 1013.66 1014.40 1015.13 1015.83 1016.48 1017.09 1017.66 1018.19 1018.69 1019.17 1019.64 1020.09 1020.53 1020.95
1008.95 1008.45 1007.93 1007.44 1006.99 1006.62 1006.35 1006.19 1006.15 1006.22 1006.38 1006.62 1006.90 1007.22 1007.56 1007.92 1008.31 1008.73 1009.20 1009.73 1010.34 1011.01 1011.75 1012.54 1013.35 1014.17 1014.97 1015.74 1016.45 1017.11 1017.72 1018.28 1018.80 1019.28 1019.74 1020.18 1020.60 1021.00
1009.13 1008.68 1008.23 1007.79 1007.38 1007.02 1006.74 1006.55 1006.44 1006.42 1006.47 1006.59 1006.76 1006.97 1007.21 1007.50 1007.83 1008.22 1008.68 1009.23 1009.87 1010.59 1011.38 1012.23 1013.10 1013.98 1014.84 1015.65 1016.42 1017.12 1017.76 1018.34 1018.87 1019.35 1019.79 1020.20 1020.59 1020.96
1009.22 1008.85 1008.46 1008.09 1007.74 1007.43 1007.17 1006.97 1006.83 1006.75 1006.73 1006.75 1006.82 1006.93 1007.09 1007.30 1007.58 1007.95 1008.40 1008.95 1009.60 1010.34 1011.16 1012.03 1012.94 1013.85 1014.73 1015.58 1016.37 1017.09 1017.75 1018.33 1018.86 1019.33 1019.75 1020.13 1020.48 1020.80
1009.25 1008.93 1008.62 1008.32 1008.04 1007.79 1007.57 1007.39 1007.25 1007.14 1007.07 1007.04 1007.04 1007.09 1007.19 1007.35 1007.60 1007.93 1008.37 1008.91 1009.56 1010.30 1011.11 1011.98 1012.88 1013.78 1014.65 1015.49 1016.28 1017.00 1017.65 1018.23 1018.74 1019.19 1019.59 1019.93 1020.24 1020.51
1009.24 1008.97 1008.72 1008.48 1008.27 1008.08 1007.91 1007.76 1007.63 1007.53 1007.44 1007.38 1007.36 1007.38 1007.45 1007.60 1007.82 1008.15 1008.58 1009.10 1009.73 1010.44 1011.22 1012.05 1012.90 1013.74 1014.58 1015.37 1016.12 1016.81 1017.43 1017.99 1018.49 1018.92 1019.29 1019.60 1019.87 1020.10
1009.24 1009.00 1008.79 1008.59 1008.43 1008.28 1008.15 1008.03 1007.93 1007.84 1007.76 1007.71 1007.69 1007.71 1007.79 1007.95 1008.19 1008.52 1008.94 1009.46 1010.05 1010.72 1011.44 1012.19 1012.96 1013.72 1014.47 1015.19 1015.87 1016.50 1017.09 1017.62 1018.09 1018.50 1018.85 1019.14 1019.38 1019.59
1009.27 1009.05 1008.85 1008.68 1008.54 1008.41 1008.30 1008.20 1008.11 1008.04 1007.98 1007.95 1007.95 1008.01 1008.13 1008.32 1008.59 1008.94 1009.37 1009.87 1010.44 1011.06 1011.70 1012.36 1013.02 1013.68 1014.32 1014.94 1015.53 1016.09 1016.62 1017.11 1017.56 1017.95 1018.29 1018.58 1018.81 1019.01
1009.33 1009.11 1008.92 1008.75 1008.60 1008.47 1008.36 1008.26 1008.18 1008.11 1008.07 1008.07 1008.11 1008.21 1008.38 1008.62 1008.93 1009.32 1009.77 1010.27 1010.81 1011.37 1011.93 1012.49 1013.04 1013.58 1014.10 1014.61 1015.10 1015.59 1016.06 1016.51 1016.94 1017.32 1017.67 1017.96 1018.20 1018.41
1009.36 1009.15 1008.95 1008.78 1008.61 1008.47 1008.34 1008.22 1008.13 1008.07 1008.04 1008.06 1008.13 1008.28 1008.50 1008.80 1009.17 1009.59 1010.07 1010.57 1011.08 1011.59 1012.08 1012.55 1013.00 1013.42 1013.83 1014.23 1014.64 1015.05 1015.46 1015.88 1016.29 1016.67 1017.02 1017.33 1017.60 1017.82
1009.27 1009.08 1008.90 1008.71 1008.54 1008.38 1008.23 1008.10 1007.99 1007.92 1007.90 1007.94 1008.05 1008.23 1008.50 1008.85 1009.26 1009.72 1010.22 1010.72 1011.22 1011.69 1012.12 1012.52 1012.88 1013.21 1013.52 1013.83 1014.16 1014.51 1014.88 1015.26 1015.66 1016.04 1016.41 1016.74 1017.03 1017.29
1008.99 1008.84 1008.67 1008.51 1008.34 1008.18 1008.02 1007.89 1007.78 1007.71 1007.69 1007.75 1007.88 1008.09 1008.39 1008.77 1009.21 1009.70 1010.20 1010.71 1011.20 1011.65 1012.04 1012.38 1012.68 1012.95 1013.20 1013.45 1013.72 1014.02 1014.35 1014.71 1015.09 1015.48 1015.85 1016.20 1016.52 1016.79
1008.45 1008.35 1008.24 1008.11 1007.97 1007.84 1007.70 1007.58 1007.49 1007.44 1007.44 1007.50 1007.65 1007.88 1008.19 1008.58 1009.04 1009.53 1010.04 1010.55 1011.02 1011.46 1011.83 1012.15 1012.42 1012.66 1012.87 1013.09 1013.32 1013.59 1013.89 1014.23 1014.60 1014.98 1015.35 1015.71 1016.03 1016.32
1007.65 1007.61 1007.56 1007.49 1007.42 1007.34 1007.26 1007.19 1007.14 1007.12 1007.15 1007.24 1007.39 1007.63 1007.94 1008.32 1008.76 1009.24 1009.74 1010.24 1010.71 1011.14 1011.51 1011.83 1012.10 1012.33 1012.54 1012.75 1012.97 1013.22 1013.50 1013.82 1014.17 1014.53 1014.88 1015.23 1015.54 1015.82
1006.63 1006.65 1006.67 1006.68 1006.69 1006.69 1006.70 1006.70 1006.72 1006.76 1006.83 1006.94 1007.11 1007.34 1007.64 1008.00 1008.41 1008.86 1009.34 1009.81 1010.27 1010.70 1011.08 1011.41 1011.70 1011.96 1012.19 1012.41 1012.64 1012.88 1013.15 1013.45 1013.76 1014.09 1014.41 1014.72 1015.01 1015.27
Thickness
5679 5683 5687 5692 5696 5700 5703 5705 5702 5702 5706 5713 5717 5722 5724 5726 5729 5729 5731 5730 5728 5727 5726 5726 5724 5723 5721 5720 5718 5716 5714 5712 5709 5706 5703 5701 5698 5695
5672 5676 5680 5685 5690 5694 5697 5700 5701 5702 5703 5710 5712 5716 5718 5721 5722 5724 5726 5726 5724 5724 5723 5722 5720 5719 5717 5715 5713 5711 5709 5707 5704 5701 5698 5696 5693 5690
5666 5670 5674 5680 5683 5687 5690 5693 5696 5698 5698 5703 5706 5709 5711 5714 5716 5717 5719 5720 5720 5719 5719 5718 5716 5715 5712 5710 5708 5706 5704 5702 5699 5696 5693 5690 5687 5684
5659 5662 5667 5672 5676 5680 5683 5687 5690 5694 5695 5695 5698 5701 5704 5708 5710 5711 5713 5714 5716 5715 5714 5713 5711 5709 5707 5705 5703 5700 5698 5696 5693 5691 5688 5685 5682 5678
5651 5654 5659 5663 5667 5671 5675 5680 5684 5687 5689 5690 5692 5694 5697 5700 5702 5704 5706 5708 5709 5709 5708 5707 5705 5703 5701 5699 5697 5694 5692 5690 5688 5685 5682 5679 5675 5672
5645 5648 5652 5656 5660 5663 5667 5672 5676 5679 5681 5683 5685 5687 5690 5693 5695 5696 5698 5700 5702 5703 5702 5701 5699 5696 5695 5693 5691 5688 5686 5683 5681 5678 5675 5672 5669 5665
5640 5643 5646 5648 5652 5655 5659 5664 5668 5671 5674 5675 5678 5681 5683 5686 5689 5692 5692 5693 5693 5696 5695 5694 5692 5690 5687 5685 5683 5681 5679 5676 5674 5671 5668 5665 5661 5658
5633 5637 5640 5643 5645 5648 5651 5655 5660 5664 5668 5670 5673 5676 5679 5683 5684 5685 5686 5685 5685 5688 5688 5686 5685 5683 5681 5679 5676 5674 5672 5669 5666 5663 5661 5658 5654 5651
5626 5629 5633 5636 5638 5643 5645 5648 5653 5657 5662 5667 5669 5673 5677 5680 5680 5680 5681 5682 5682 5684 5681 5676 5676 5675 5673 5672 5669 5667 5665 5662 5659 5656 5653 5650 5647 5643
5619 5622 5625 5628 5631 5635 5640 5644 5648 5652 5657 5661 5667 5670 5673 5675 5677 5678 5677 5675 5674 5674 5675 5670 5667 5665 5664 5662 5661 5659 5656 5654 5651 5648 5646 5643 5640 5636
5614 5617 5619 5623 5624 5627 5633 5637 5641 5645 5648 5653 5658 5663 5666 5669 5670 5669 5669 5668 5666 5664 5664 5664 5659 5656 5654 5653 5651 5650 5648 5646 5644 5641 5639 5636 5633 5629
5610 5613 5614 5616 5619 5623 5629 5633 5636 5640 5645 5648 5651 5655 5659 5662 5664 5666 5666 5665 5662 5657 5657 5657 5653 5650 5644 5642 5643 5642 5640 5637 5636 5634 5632 5629 5627 5626
5609 5611 5613 5613 5616 5620 5624 5629 5631 5635 5640 5643 5646 5649 5653 5655 5657 5659 5662 5662 5660 5656 5655 5654 5649 5648 5645 5638 5634 5634 5634 5631 5628 5626 5624 5623 5622 5622
5608 5609 5611 5611 5614 5618 5622 5624 5627 5630 5635 5638 5640 5643 5645 5648 5650 5652 5654 5654 5656 5655 5653 5652 5649 5647 5643 5636 5631 5627 5627 5626 5626 5624 5621 5618 5617 5617
5611 5609 5609 5610 5613 5617 5619 5622 5625 5629 5631 5633 5635 5637 5639 5641 5642 5643 5644 5644 5644 5644 5645 5646 5646 5643 5642 5638 5632 5627 5624 5622 5622 5622 5620 5618 5616 5616
5616 5614 5612 5612 5614 5616 5619 5622 5624 5626 5628 5629 5630 5631 5632 5633 5634 5635 5635 5636 5635 5634 5635 5637 5638 5638 5636 5635 5632 5628 5625 5622 5620 5619 5619 5618 5618 5617
5616 5619 5619 5619 5619 5619 5620 5621 5622 5623 5624 5625 5625 5626 5626 5627 5628 5628 5629 5630 5630 5628 5626 5627 5628 5629 5630 5629 5627 5626 5624 5622 5620 5618 5617 5616 5617 5617
5617 5621 5621 5621 5621 5621 5621 5620 5621 5621 5622 5623 5623 5622 5623 5623 5623 5624 5625 5627 5626 5625 5624 5623 5623 5622 5621 5620 5622 5624 5623 5621 5619 5616 5616 5616 5617 5618
5621 5624 5624 5624 5623 5623 5622 5622 5621 5621 5621 5621 5621 5621 5621 5621 5621 5621 5622 5623 5622 5622 5621 5621 5622 5623 5622 5621 5618 5618 5621 5620 5618 5616 5616 5617 5618 5620
5628 5627 5626 5626 5625 5625 5624 5624 5623 5622 5621 5621 5620 5620 5620 5620 5620 5620 5620 5621 5620 5619 5618 5618 5620 5622 5624 5625 5622 5617 5616 5618 5617 5617 5617 5617 5617 5616
5633 5631 5630 5628 5628 5627 5627 5626 5625 5623 5622 5621 5621 5620 5620 5619 5619 5619 5618 5616 5617 5617 5616 5616 5616 5616 5620 5621 5619 5617 5615 5612 5615 5618 5618 5617 5616 5616
5637 5635 5633 5631 5630 5629 5628 5626 5626 5625 5624 5624 5623 5622 5621 5621 5620 5619 5618 5617 5617 5617 5616 5614 5611 5612 5615 5617 5619 5619 5615 5612 5610 5610 5611 5614 5617 5619
5640 5638 5636 5634 5632 5630 5629 5628 5627 5627 5626 5625 5625 5624 5623 5622 5621 5619 5619 5618 5618 5616 5614 5611 5610 5611 5613 5615 5616 5617 5616 5613 5612 5610 5611 5611 5611 5610